• In Österreich
  • Länderverzeichnis
  • Für 7 Tage
  • Wassertemperatur
  • Satellitenkarten
  • Wetterkarte
  • News
  • Widgets
  • user-avatar
    Anmelden

    Stündliche Wetter Brisbane

    Heute, 25 Mai, Freitag

    Zeit Temperatur Niederschläge Wind Luftdruck Luftfeuchtigkeit
    00:00 +17°C° 0 mm 2 m/S 765 mmHg 86%
    01:00 +17°C° 0 mm 2 m/S 765 mmHg 87%
    02:00 +16°C° 0 mm 2 m/S 765 mmHg 88%
    03:00 +16°C° 0 mm 3 m/S 765 mmHg 88%
    04:00 +16°C° 0 mm 3 m/S 765 mmHg 88%
    05:00 +16°C° 0 mm 3 m/S 765 mmHg 87%
    06:00 +16°C° 0 mm 3 m/S 766 mmHg 87%
    07:00 +16°C° 0 mm 3 m/S 766 mmHg 86%
    08:00 +18°C° 0 mm 4 m/S 766 mmHg 77%
    09:00 +20°C° 0 mm 4 m/S 766 mmHg 69%
    10:00 +22°C° 0 mm 5 m/S 766 mmHg 62%
    11:00 +23°C° 0,1 mm 5 m/S 766 mmHg 59%
    12:00 +25°C° 0,1 mm 5 m/S 765 mmHg 55%
    13:00 +25°C° 0,1 mm 5 m/S 765 mmHg 52%
    14:00 +25°C° 0,1 mm 5 m/S 765 mmHg 55%
    15:00 +23°C° 0,1 mm 5 m/S 765 mmHg 58%
    16:00 +23°C° 0 mm 4 m/S 765 mmHg 61%
    17:00 +21°C° 0,1 mm 5 m/S 766 mmHg 67%
    18:00 +20°C° 0,1 mm 5 m/S 766 mmHg 74%
    19:00 +19°C° 0,1 mm 5 m/S 767 mmHg 80%
    20:00 +19°C° 0,3 mm 5 m/S 767 mmHg 82%
    21:00 +18°C° 0,3 mm 4 m/S 767 mmHg 83%
    22:00 +18°C° 0 mm 4 m/S 767 mmHg 86%
    23:00 +17°C° 0,4 mm 4 m/S 767 mmHg 87%

    Morgen, 26 Mai, Samstag

    Zeit Temperatur Niederschläge Wind Luftdruck Luftfeuchtigkeit
    00:00 +17°C° 0,4 mm 4 m/S 767 mmHg 87%
    01:00 +16°C° 0,4 mm 5 m/S 767 mmHg 88%
    02:00 +16°C° 0,2 mm 5 m/S 767 mmHg 88%
    03:00 +16°C° 0,2 mm 5 m/S 767 mmHg 89%
    04:00 +16°C° 0,2 mm 5 m/S 768 mmHg 89%
    05:00 +16°C° 0 mm 5 m/S 768 mmHg 89%
    06:00 +15°C° 0 mm 5 m/S 768 mmHg 88%
    07:00 +15°C° 0 mm 5 m/S 768 mmHg 88%
    08:00 +17°C° 0 mm 5 m/S 768 mmHg 77%
    09:00 +20°C° 0 mm 5 m/S 768 mmHg 66%
    10:00 +22°C° 0 mm 6 m/S 769 mmHg 55%
    11:00 +22°C° 0 mm 5 m/S 768 mmHg 53%
    12:00 +23°C° 0 mm 5 m/S 768 mmHg 52%
    13:00 +23°C° 0 mm 5 m/S 767 mmHg 50%
    14:00 +22°C° 0 mm 5 m/S 767 mmHg 52%
    15:00 +22°C° 0 mm 5 m/S 767 mmHg 55%
    16:00 +21°C° 0 mm 5 m/S 767 mmHg 57%
    17:00 +20°C° 0,1 mm 4 m/S 768 mmHg 64%
    18:00 +19°C° 0,1 mm 4 m/S 768 mmHg 71%
    19:00 +17°C° 0,1 mm 4 m/S 768 mmHg 78%
    20:00 +17°C° 0,1 mm 4 m/S 768 mmHg 80%
    21:00 +17°C° 0,1 mm 4 m/S 768 mmHg 82%
    22:00 +15°C° 0,1 mm 4 m/S 769 mmHg 84%
    23:00 +15°C° 0,1 mm 4 m/S 768 mmHg 84%

    übermorgen, 27 Mai, Sonntag

    Zeit Temperatur Niederschläge Wind Luftdruck Luftfeuchtigkeit
    00:00 +15°C° 0,1 mm 4 m/S 768 mmHg 85%
    01:00 +15°C° 0,1 mm 4 m/S 768 mmHg 86%
    02:00 +15°C° 0,1 mm 4 m/S 768 mmHg 86%
    03:00 +15°C° 0,1 mm 4 m/S 768 mmHg 85%
    04:00 +16°C° 0,1 mm 3 m/S 768 mmHg 85%
    05:00 +16°C° 0,2 mm 3 m/S 768 mmHg 86%
    06:00 +15°C° 0,2 mm 4 m/S 768 mmHg 87%
    07:00 +14°C° 0,2 mm 4 m/S 768 mmHg 89%
    08:00 +17°C° 0,1 mm 4 m/S 768 mmHg 81%
    09:00 +19°C° 0,1 mm 4 m/S 768 mmHg 74%
    10:00 +21°C° 0,1 mm 5 m/S 768 mmHg 66%
    11:00 +22°C° 0,1 mm 5 m/S 768 mmHg 62%
    12:00 +23°C° 0,1 mm 5 m/S 767 mmHg 58%
    13:00 +23°C° 0,1 mm 5 m/S 766 mmHg 53%
    14:00 +23°C° 0 mm 5 m/S 766 mmHg 54%
    15:00 +23°C° 0 mm 4 m/S 766 mmHg 54%
    16:00 +22°C° 0 mm 4 m/S 766 mmHg 55%
    17:00 +21°C° 0,1 mm 4 m/S 766 mmHg 63%
    18:00 +19°C° 0,1 mm 3 m/S 766 mmHg 72%
    19:00 +18°C° 0,1 mm 3 m/S 767 mmHg 80%
    20:00 +18°C° 0,3 mm 3 m/S 767 mmHg 82%
    21:00 +17°C° 0,3 mm 3 m/S 767 mmHg 84%
    22:00 +17°C° 0,3 mm 3 m/S 768 mmHg 86%
    23:00 +17°C° 0,4 mm 3 m/S 767 mmHg 88%

    28 Mai, Montag

    Zeit Temperatur Niederschläge Wind Luftdruck Luftfeuchtigkeit
    00:00 +17°C° 0,4 mm 3 m/S 767 mmHg 89%
    01:00 +17°C° 0,4 mm 3 m/S 767 mmHg 90%
    02:00 +17°C° 0,3 mm 3 m/S 766 mmHg 90%
    03:00 +17°C° 0,3 mm 3 m/S 766 mmHg 90%
    04:00 +17°C° 0,3 mm 3 m/S 766 mmHg 90%
    05:00 +17°C° 0,2 mm 3 m/S 766 mmHg 90%
    06:00 +17°C° 0,2 mm 3 m/S 766 mmHg 90%
    07:00 +17°C° 0,2 mm 3 m/S 767 mmHg 89%
    08:00 +18°C° 0,1 mm 3 m/S 767 mmHg 84%
    09:00 +20°C° 0,1 mm 3 m/S 767 mmHg 78%
    10:00 +21°C° 0,1 mm 3 m/S 767 mmHg 73%
    11:00 +21°C° 0,3 mm 3 m/S 766 mmHg 69%
    12:00 +22°C° 0,3 mm 3 m/S 766 mmHg 65%
    13:00 +24°C° 0,3 mm 3 m/S 765 mmHg 61%
    14:00 +22°C° 0,3 mm 3 m/S 765 mmHg 65%
    15:00 +21°C° 0,3 mm 3 m/S 765 mmHg 68%
    16:00 +21°C° 0,3 mm 3 m/S 765 mmHg 72%
    17:00 +20°C° 0,3 mm 3 m/S 765 mmHg 76%
    18:00 +19°C° 0,3 mm 3 m/S 765 mmHg 80%
    19:00 +18°C° 0,3 mm 3 m/S 766 mmHg 85%
    20:00 +18°C° 0,4 mm 2 m/S 766 mmHg 86%
    21:00 +18°C° 0,4 mm 2 m/S 766 mmHg 87%
    22:00 +17°C° 0,4 mm 2 m/S 766 mmHg 88%
    23:00 +17°C° 0,5 mm 2 m/S 766 mmHg 89%

    29 Mai, Dienstag

    Zeit Temperatur Niederschläge Wind Luftdruck Luftfeuchtigkeit
    00:00 +17°C° 0,5 mm 2 m/S 765 mmHg 89%
    01:00 +17°C° 0,5 mm 2 m/S 765 mmHg 90%
    02:00 +16°C° 0,6 mm 2 m/S 765 mmHg 90%
    03:00 +16°C° 0,6 mm 2 m/S 765 mmHg 91%
    04:00 +16°C° 0,6 mm 2 m/S 764 mmHg 91%
    05:00 +16°C° 0,3 mm 2 m/S 765 mmHg 91%
    06:00 +16°C° 0,3 mm 2 m/S 765 mmHg 90%
    07:00 +16°C° 0,3 mm 2 m/S 765 mmHg 90%
    08:00 +18°C° 0,1 mm 2 m/S 765 mmHg 81%
    09:00 +20°C° 0,1 mm 2 m/S 765 mmHg 71%
    10:00 +23°C° 0,1 mm 2 m/S 765 mmHg 62%
    11:00 +24°C° 0 mm 2 m/S 765 mmHg 57%
    12:00 +25°C° 0 mm 2 m/S 764 mmHg 53%
    13:00 +26°C° 0 mm 2 m/S 763 mmHg 48%
    14:00 +25°C° 0 mm 3 m/S 763 mmHg 52%
    15:00 +24°C° 0 mm 3 m/S 763 mmHg 57%
    16:00 +22°C° 0 mm 3 m/S 763 mmHg 61%
    17:00 +21°C° 0 mm 2 m/S 763 mmHg 68%
    18:00 +19°C° 0 mm 2 m/S 764 mmHg 76%
    19:00 +19°C° 0 mm 1 m/S 764 mmHg 83%
    20:00 +18°C° 0 mm 1 m/S 764 mmHg 84%
    21:00 +18°C° 0 mm 1 m/S 765 mmHg 85%
    22:00 +18°C° 0 mm 1 m/S 765 mmHg 86%
    23:00 +16°C° 0 mm 1 m/S 764 mmHg 88%

    30 Mai, Mittwoch

    Zeit Temperatur Niederschläge Wind Luftdruck Luftfeuchtigkeit
    00:00 +16°C° 0 mm 1 m/S 764 mmHg 89%
    01:00 +16°C° 0 mm 1 m/S 764 mmHg 90%
    02:00 +16°C° 0 mm 1 m/S 764 mmHg 91%
    03:00 +15°C° 0 mm 2 m/S 764 mmHg 91%
    04:00 +15°C° 0 mm 2 m/S 764 mmHg 91%
    05:00 +15°C° 0 mm 2 m/S 764 mmHg 91%
    06:00 +15°C° 0 mm 2 m/S 764 mmHg 90%
    07:00 +15°C° 0 mm 2 m/S 764 mmHg 89%
    08:00 +17°C° 0 mm 2 m/S 764 mmHg 77%
    09:00 +20°C° 0 mm 2 m/S 764 mmHg 66%
    10:00 +24°C° 0 mm 2 m/S 764 mmHg 54%
    11:00 +25°C° 0 mm 3 m/S 764 mmHg 46%
    12:00 +27°C° 0 mm 3 m/S 763 mmHg 39%
    13:00 +28°C° 0 mm 3 m/S 762 mmHg 32%
    14:00 +28°C° 0 mm 3 m/S 762 mmHg 33%
    15:00 +27°C° 0 mm 3 m/S 762 mmHg 34%
    16:00 +27°C° 0 mm 3 m/S 762 mmHg 35%
    17:00 +25°C° 0 mm 4 m/S 763 mmHg 33%
    18:00 +22°C° 0 mm 4 m/S 763 mmHg 31%
    19:00 +20°C° 0 mm 5 m/S 764 mmHg 29%
    20:00 +17°C° 0 mm 5 m/S 765 mmHg 29%
    21:00 +16°C° 0 mm 5 m/S 765 mmHg 28%
    22:00 +15°C° 0 mm 5 m/S 766 mmHg 28%
    23:00 +14°C° 0 mm 5 m/S 766 mmHg 29%
    Mehr zeigen